Wind_Speed
53 55 56 57 58 58 59 60 61 60 60 61 61 62 63 64 64 65 65 65 64 64 64 64 64 63 63 63 63 63 63 63 64 64 65 67 68 69
55 56 56 57 57 57 57 58 59 59 59 59 60 61 62 62 63 63 62 62 61 60 59 59 59 59 58 58 59 59 59 59 59 59 60 61 63 65
55 55 55 55 55 56 56 57 58 58 57 57 58 59 59 60 59 58 57 55 54 53 52 51 51 50 50 50 50 50 50 51 52 53 54 55 58 60
54 54 54 54 54 54 55 55 56 56 56 55 55 55 55 55 54 52 50 49 47 45 44 43 42 41 41 41 41 42 43 43 44 45 46 48 50 53
52 52 52 52 53 53 53 53 53 53 53 52 51 50 50 49 47 45 43 41 39 37 36 35 35 34 35 35 36 37 37 38 39 39 40 41 43 45
51 51 51 51 51 51 51 50 50 50 49 48 47 46 44 42 40 38 35 34 33 32 32 32 32 32 32 33 33 34 35 36 36 36 37 38 39 41
49 50 50 50 49 49 48 47 47 47 45 44 41 39 37 35 33 31 30 29 30 30 30 31 30 31 31 31 31 31 32 33 34 34 35 35 36 38
49 49 48 47 46 46 45 44 43 41 39 36 34 32 30 28 27 27 27 27 27 28 29 29 29 29 29 29 29 29 29 30 30 31 32 32 33 34
48 47 46 45 44 43 41 39 37 34 31 29 27 25 24 25 25 25 26 26 26 26 26 27 27 26 26 26 26 26 27 27 27 28 29 29 30 31
46 44 43 41 40 37 34 32 30 27 24 22 21 21 22 22 23 23 24 24 24 25 26 25 25 24 24 24 24 24 24 24 24 25 25 26 27 29
41 39 37 35 32 30 28 26 24 21 18 17 17 19 20 20 20 21 22 23 23 24 25 24 23 23 23 23 22 21 21 21 21 21 22 23 24 25
35 32 29 27 25 24 22 19 17 15 14 14 15 16 17 18 19 19 21 22 22 22 23 22 22 21 21 21 20 19 18 17 17 17 18 19 20 21
27 24 22 20 18 16 14 12 11 11 11 12 13 14 15 17 17 18 20 21 21 20 21 20 20 19 18 17 17 16 14 14 13 13 13 14 15 17
19 17 15 13 12 10 9 8 8 8 9 10 11 12 14 16 16 18 19 20 20 20 20 19 18 17 16 15 14 13 11 9 9 9 9 10 11 13
12 10 9 7 6 5 5 4 5 6 8 9 10 12 13 15 15 17 18 19 19 19 19 19 18 17 16 14 13 11 9 6 4 3 4 5 7 9
7 5 4 3 2 2 2 4 5 6 7 8 9 11 12 14 15 16 18 18 18 19 18 19 18 18 16 15 14 12 10 7 5 3 1 1 3 6
1 0 1 2 3 3 4 5 6 6 7 8 9 11 12 13 15 16 17 18 18 19 19 19 19 18 18 16 15 14 13 11 9 7 5 3 3 5
3 4 4 5 5 6 6 6 7 8 8 9 10 11 13 14 15 16 17 17 18 18 19 19 19 20 19 18 18 16 15 14 12 11 9 8 6 5
6 6 7 8 8 8 8 9 9 10 10 11 11 12 14 15 16 16 17 17 18 18 19 19 20 20 20 20 19 19 18 17 15 14 12 11 9 8
8 9 9 10 10 10 10 11 11 12 12 13 13 14 15 16 17 18 18 18 18 18 19 19 19 20 20 20 20 19 19 18 17 16 15 14 13 12
10 11 11 11 11 12 13 13 13 14 14 15 15 16 17 18 19 19 20 20 19 19 18 18 18 19 20 20 19 19 19 19 18 17 17 17 16 15
12 12 12 13 13 14 14 14 15 15 16 16 16 17 18 19 20 20 21 21 20 19 18 18 18 18 19 18 18 18 19 19 19 18 18 18 17 16
13 13 14 14 14 15 15 15 15 15 16 16 17 17 18 19 20 21 21 21 21 20 20 19 19 18 17 17 17 17 18 18 19 19 18 18 18 17
Wind_Direction
291 290 290 290 289 289 288 288 288 288 289 289 288 288 288 287 287 287 286 285 284 282 281 279 278 276 275 273 271 269 268 266 264 262 259 256 254 252
290 289 289 289 289 289 290 290 290 290 290 290 289 289 289 289 289 288 288 287 286 284 283 281 279 278 276 274 271 269 267 265 263 261 259 256 253 250
290 290 289 290 290 291 291 291 291 291 291 291 291 291 291 291 291 291 290 289 288 286 285 283 281 279 276 274 272 270 268 266 263 261 258 256 253 250
290 290 290 291 291 291 292 292 292 292 293 293 293 293 293 293 293 293 292 291 290 288 287 286 284 281 278 275 273 271 269 267 264 261 259 256 253 250
290 290 291 291 291 292 292 293 293 293 294 295 295 296 296 296 296 295 295 293 292 291 289 288 285 283 280 278 275 272 270 267 264 261 259 256 254 251
290 290 291 292 293 293 293 294 295 295 297 298 299 298 298 298 298 298 297 296 295 294 292 290 287 286 283 280 277 274 271 268 265 262 260 257 254 251
291 292 293 294 294 294 295 295 296 297 298 299 300 300 300 301 301 301 301 300 300 300 298 295 293 290 287 284 280 276 273 269 266 263 260 257 255 252
293 294 294 295 295 295 295 296 297 298 299 300 300 301 302 303 304 305 305 306 305 304 303 301 299 294 290 287 284 279 275 272 268 263 259 257 255 252
295 295 295 295 295 296 296 297 298 298 299 301 302 303 303 304 306 308 310 311 310 310 309 306 304 300 296 292 287 283 278 273 269 264 259 257 254 250
295 295 295 295 295 296 297 298 298 299 301 302 303 304 305 307 310 313 314 314 314 315 315 313 309 306 302 298 293 288 283 276 270 265 261 256 253 249
294 294 295 295 295 295 296 296 297 299 301 303 305 308 311 314 316 318 320 320 319 319 319 317 314 312 309 304 299 293 286 279 272 265 261 257 252 248
294 294 293 293 293 294 294 295 297 300 304 307 311 315 319 321 323 325 327 327 325 323 323 321 319 317 314 310 305 299 290 282 275 267 262 257 250 243
294 293 291 291 292 292 292 294 298 303 308 314 319 324 329 332 332 333 334 335 334 333 331 329 328 326 324 320 315 309 299 288 276 267 262 255 245 237
293 292 291 291 290 290 293 297 304 312 319 325 330 335 339 341 342 342 342 343 344 343 342 342 341 339 337 336 333 326 316 301 284 269 260 252 240 230
293 292 292 292 293 297 302 314 324 330 336 340 343 345 347 349 352 352 352 352 353 354 355 356 356 355 355 355 355 354 350 342 323 291 259 244 231 219
294 294 296 304 321 341 353 354 352 351 354 355 355 356 357 358 0 2 3 4 5 7 9 10 11 12 14 17 19 19 21 24 27 31 16 221 207 201
307 36 70 70 69 57 41 28 21 16 12 10 9 10 11 12 11 12 13 15 17 18 20 22 24 25 28 31 33 35 40 44 49 57 63 86 130 162
104 98 89 88 83 70 57 46 39 34 29 24 23 24 23 22 20 20 22 23 24 26 28 29 32 36 38 40 41 45 49 54 58 63 69 79 95 120
99 95 94 91 82 72 63 57 52 47 43 39 38 35 31 29 29 28 29 30 31 32 34 35 38 41 43 45 46 50 55 60 64 66 69 75 86 100
96 96 94 88 82 76 71 66 62 57 54 51 48 45 41 38 37 35 34 34 35 37 38 40 43 46 48 49 50 53 57 61 64 66 69 75 84 93
97 96 92 88 85 82 77 72 67 64 61 58 55 51 47 44 42 41 39 39 39 40 41 43 47 50 51 52 53 54 58 61 63 67 71 77 84 91
96 94 91 89 87 83 78 73 69 66 63 59 55 51 48 45 44 43 42 41 42 43 45 47 48 50 52 54 56 58 59 62 65 69 75 81 85 88
95 93 90 88 86 82 78 73 69 65 61 57 53 49 47 45 43 42 42 42 42 44 46 48 50 51 53 55 57 59 62 64 67 70 75 81 87 90
Height
5739 5734 5729 5725 5720 5715 5710 5705 5701 5696 5691 5684 5678 5672 5666 5661 5656 5652 5647 5643 5639 5634 5630 5627 5623 5620 5618 5616 5615 5614 5613 5614 5614 5616 5618 5621 5625 5629
5724 5719 5714 5709 5705 5700 5695 5689 5684 5679 5675 5669 5662 5656 5650 5644 5639 5634 5628 5624 5619 5614 5610 5606 5603 5600 5597 5595 5594 5593 5592 5593 5593 5594 5596 5598 5602 5606
5708 5703 5699 5694 5689 5684 5680 5674 5669 5663 5659 5654 5646 5640 5634 5628 5622 5616 5611 5606 5601 5596 5592 5588 5585 5582 5579 5577 5575 5574 5574 5574 5574 5575 5576 5579 5582 5586
5693 5688 5684 5679 5675 5670 5665 5659 5654 5648 5643 5638 5632 5625 5619 5613 5607 5601 5595 5590 5585 5581 5577 5573 5570 5567 5564 5562 5560 5559 5558 5557 5557 5558 5560 5562 5565 5567
5678 5674 5669 5665 5661 5656 5650 5645 5640 5634 5629 5624 5618 5611 5605 5598 5593 5588 5582 5577 5573 5569 5565 5562 5558 5555 5552 5550 5548 5546 5545 5544 5544 5544 5545 5547 5549 5552
5664 5660 5656 5651 5647 5642 5637 5631 5626 5621 5615 5610 5604 5598 5592 5587 5581 5577 5572 5567 5563 5559 5555 5551 5548 5545 5541 5539 5536 5535 5533 5532 5532 5532 5533 5534 5536 5538
5650 5646 5642 5638 5633 5628 5623 5619 5614 5609 5603 5598 5593 5587 5582 5577 5572 5568 5564 5559 5554 5550 5546 5541 5538 5534 5531 5528 5526 5524 5522 5521 5520 5520 5521 5522 5524 5526
5636 5632 5628 5624 5620 5615 5611 5607 5602 5597 5593 5588 5583 5579 5574 5570 5565 5561 5556 5552 5548 5543 5538 5533 5529 5525 5521 5518 5516 5513 5511 5510 5509 5509 5510 5511 5512 5514
5623 5618 5614 5611 5607 5603 5599 5596 5592 5587 5584 5580 5576 5572 5568 5564 5560 5555 5550 5545 5541 5536 5531 5526 5521 5516 5513 5509 5506 5504 5502 5500 5500 5499 5500 5500 5502 5503
5610 5606 5602 5598 5595 5592 5589 5586 5582 5579 5576 5573 5570 5567 5563 5559 5554 5550 5545 5540 5535 5530 5525 5520 5515 5510 5506 5502 5498 5496 5493 5492 5491 5490 5490 5491 5492 5494
5598 5594 5591 5588 5586 5583 5580 5578 5575 5573 5571 5568 5566 5562 5558 5554 5550 5545 5540 5535 5531 5525 5520 5514 5509 5504 5500 5495 5492 5488 5486 5484 5483 5483 5483 5483 5484 5486
5587 5584 5582 5580 5578 5576 5574 5572 5571 5569 5567 5565 5562 5559 5555 5551 5546 5542 5537 5532 5526 5521 5516 5510 5505 5500 5495 5490 5486 5482 5480 5478 5477 5476 5476 5477 5477 5479
5578 5576 5575 5573 5572 5571 5569 5568 5567 5566 5564 5562 5559 5556 5552 5548 5544 5539 5534 5529 5523 5518 5513 5507 5501 5496 5491 5486 5482 5478 5475 5473 5472 5471 5471 5471 5472 5474
5572 5570 5570 5569 5568 5567 5566 5566 5565 5563 5562 5560 5557 5554 5550 5546 5542 5537 5532 5527 5522 5516 5510 5504 5499 5493 5488 5484 5479 5475 5472 5470 5468 5468 5468 5468 5469 5470
5568 5567 5566 5566 5566 5565 5565 5564 5563 5562 5560 5558 5556 5553 5549 5545 5541 5536 5532 5526 5521 5515 5509 5503 5498 5493 5487 5483 5478 5474 5471 5469 5467 5467 5466 5467 5467 5469
5566 5565 5565 5565 5564 5564 5564 5563 5562 5561 5559 5557 5555 5552 5549 5545 5541 5536 5532 5526 5521 5516 5510 5504 5499 5493 5488 5483 5479 5475 5472 5470 5468 5467 5467 5467 5467 5468
5565 5565 5565 5565 5565 5564 5564 5563 5562 5561 5559 5557 5555 5552 5549 5545 5541 5537 5532 5527 5522 5517 5512 5506 5501 5496 5491 5486 5482 5479 5475 5472 5470 5469 5469 5469 5469 5470
5566 5566 5566 5566 5566 5565 5565 5564 5563 5561 5560 5558 5555 5553 5550 5546 5542 5538 5534 5529 5524 5519 5514 5509 5504 5500 5495 5491 5487 5483 5479 5477 5475 5473 5472 5471 5471 5472
5567 5567 5567 5567 5567 5567 5566 5565 5564 5563 5561 5559 5557 5554 5551 5548 5544 5540 5536 5531 5527 5522 5518 5513 5508 5504 5500 5496 5493 5489 5485 5482 5480 5478 5476 5475 5475 5475
5569 5569 5570 5570 5570 5569 5568 5567 5566 5565 5563 5561 5559 5556 5553 5550 5546 5542 5538 5534 5530 5526 5521 5517 5513 5509 5506 5502 5498 5495 5491 5488 5486 5484 5482 5481 5480 5480
5572 5572 5572 5573 5572 5572 5571 5570 5569 5568 5566 5564 5562 5559 5556 5553 5549 5546 5542 5538 5533 5529 5526 5522 5518 5514 5511 5507 5504 5501 5498 5495 5492 5490 5488 5487 5487 5487
5576 5576 5576 5576 5576 5575 5575 5574 5573 5571 5570 5568 5565 5563 5560 5557 5553 5549 5546 5542 5538 5534 5530 5527 5523 5519 5516 5513 5510 5507 5504 5502 5499 5497 5495 5494 5494 5494
5580 5580 5580 5580 5580 5579 5579 5578 5577 5575 5573 5571 5569 5566 5563 5560 5557 5553 5550 5546 5542 5539 5535 5531 5528 5524 5521 5519 5516 5513 5511 5508 5506 5504 5503 5501 5501 5501